Weather in Slava

Russia / Lipetsk Oblast     52°18′25″N   40°22′29″E
temp.,
°C
wind,
m/s
gust,
m/s
humid.,
%
clouds,
%
prec.,
mm/h
press.,
hPa
HPBL,
m
18 may, tue
tue1800:00+18ese5166317 0.0 1009303
03:00+16ese5136093 0.0 1009237
06:00+15se412700 0.0 1009239
09:00+21se610522 0.0 1009422
12:00+26ese610435 0.0 1007859
15:00+27se7135110 0.0 10061665
18:00+24sse496056 0.0 1006363
21:00+18sw4985100 0.1 1007202
19 may, wed
wed1900:00+16s2293100 0.6 100826
03:00+15s369334 0.7 1008123
06:00+15sse2591100 0.2 1008176
09:00+19sse457210 0.2 1008760
12:00+22se455656 0.0 10081396
15:00+23se465379 0.0 10071965
18:00+20sse3773100 0.2 1006205
21:00+14ssw2292100 0.4 100838
20 may, thu
thu2000:00+13sse259799 0.0 1008140
03:00+11se479785 0.0 1009182
06:00+13sse5109338 0.0 1008462
09:00+15sse797798 0.1 1009965
12:00+16s787794 0.6 1009892
15:00+18s786939 0.9 10091190
18:00+15ssw61083100 0.8 1010646
21:00+13ssw489435 0.9 1011211
21 may, fri
fri2100:00+12ssw4119423 0.1 1012305
03:00+11ssw512944 0.1 1012313
06:00+11sw612895 0.0 1014735
09:00+12sw4974100 0.0 1015607
12:00+17sw710575 0.0 10161278
15:00+20wsw5751100 0.0 10161427
18:00+18w2366100 0.0 1017167
21:00+14nne3678100 0.0 101999
22 may, sat
sat2200:00+13ne51080100 0.1 1019273
03:00+12ene51186100 0.4 1019319
06:00+13ne6138392 0.1 1018409
09:00+17ene81075100 0.1 1017627
12:00+23ese685862 0.0 10151481
15:00+26sse575192 0.0 10141820
18:00+25sse3567100 0.0 1013159
21:00+20sse2275100 0.0 101418